Alexandria, LA

6:33 AM CDT on May 24, 2017 (GMT -0500)
Alexandria International

Weather History for KAEX - October, 2012

Change the Weather History Date:

Saturday, October 13, 2012

  Actual Average Record
Temperature  
Mean Temperature 75 °F 68 °F  
Max Temperature 86 °F 80 °F 92 °F (1962)
Min Temperature 63 °F 56 °F 35 °F (1893)
Degree Days  
Heating Degree Days 0 2  
Month to date heating degree days 24 14  
Since 1 July heating degree days 24 17  
Cooling Degree Days 10 5  
Month to date cooling degree days 61 77  
Year to date cooling degree days 2741 2427  
Growing Degree Days 24 (Base 50)    
Moisture  
Dew Point 66 °F    
Average Humidity 74    
Maximum Humidity 100    
Minimum Humidity 48    
Precipitation  
Precipitation 0.00 in 0.20 in 3.98 in (2001)
Month to date precipitation 0.01 2.59  
Year to date precipitation 46.74 41.72  
Snow  
Snow 0.00 in - 0.00 in ()
Month to date snowfall 0.0  
Since 1 July snowfall 0.0  
Since 1 September snowfall 0.0  
Snow Depth 0.00 in    
Sea Level Pressure  
Sea Level Pressure 30.13 in    
Wind  
Wind Speed 8 mph (SSE)    
Max Wind Speed 15 mph    
Max Gust Speed 21 mph    
Visibility 6 miles    
Events Fog    
T = Trace of Precipitation, MM = Missing Value Source: NWS Daily Summary

Daily Weather History Graph

Daily Weather History Graph

Search for Another Location

Airport or City:

Trip Planner

Search our weather history database for the weather conditions in past years. The results will help you decide how hot, cold, wet, or windy it might be!

Date:

Astronomy

Oct. 13, 2012 Rise Set
Actual Time 7:12 AM CDT 6:40 PM CDT
Civil Twilight 6:47 AM CDT 7:04 PM CDT
Nautical Twilight 6:19 AM CDT 7:32 PM CDT
Astronomical Twilight 5:51 AM CDT 8:00 PM CDT
Moon 5:08 AM CDT (10/13) 5:20 PM CDT (10/13)
Length of Visible Light 12h 16m
Length of Day
11h 27m
Waning Crescent, 5% of the Moon is Illuminated
Oct 13
Waning Crescent
Oct 15
New
Oct 21
First Quarter
Oct 29
Full
Nov 6
Last Quarter

Hourly Weather History & Observations

Time (CDT) Temp. Heat Index Dew Point Humidity Pressure Visibility Wind Dir Wind Speed Gust Speed Precip Events Conditions
12:53 AM 64.9 °F - 62.1 °F 90% 30.14 in 6.0 mi SE 5.8 mph - N/A   Clear
1:53 AM 64.9 °F - 62.1 °F 90% 30.14 in 6.0 mi SE 4.6 mph - N/A   Clear
2:53 AM 64.9 °F - 63.0 °F 93% 30.15 in 6.0 mi SE 3.5 mph - N/A   Clear
3:30 AM 66.2 °F - 62.6 °F 88% 30.13 in 6.0 mi SE 4.6 mph - N/A   Mostly Cloudy
3:41 AM 64.4 °F - 62.6 °F 94% 30.13 in 5.0 mi SE 4.6 mph - N/A   Scattered Clouds
3:53 AM 64.9 °F - 63.0 °F 93% 30.14 in 5.0 mi SE 4.6 mph - N/A   Partly Cloudy
4:53 AM 64.0 °F - 63.0 °F 96% 30.14 in 4.0 mi SE 4.6 mph - N/A   Clear
5:53 AM 64.9 °F - 64.0 °F 97% 30.15 in 3.0 mi SE 6.9 mph - N/A   Scattered Clouds
6:53 AM 68.0 °F - 66.9 °F 96% 30.16 in 3.0 mi SE 8.1 mph - N/A   Scattered Clouds
7:00 AM 66.2 °F - 66.2 °F 100% 30.15 in 0.5 mi SE 8.1 mph - N/A Fog Fog
7:17 AM 66.2 °F - 66.2 °F 100% 30.15 in 0.2 mi SE 9.2 mph - N/A Fog Fog
7:53 AM 68.0 °F - 66.9 °F 96% 30.17 in 0.2 mi SE 6.9 mph - N/A Fog Fog
8:11 AM 68.0 °F - 66.2 °F 94% 30.16 in 0.2 mi SE 10.4 mph - N/A Fog Fog
8:53 AM 68.0 °F - 68.0 °F 100% 30.18 in 0.2 mi SE 9.2 mph - N/A Fog Fog
9:03 AM 69.8 °F - 68.0 °F 94% 30.17 in 0.5 mi SE 8.1 mph - N/A Fog Fog
9:46 AM 69.8 °F - 68.0 °F 94% 30.18 in 3.0 mi SE 10.4 mph - N/A   Overcast
9:53 AM 70.0 °F - 68.0 °F 93% 30.19 in 4.0 mi SE 9.2 mph - N/A   Overcast
10:21 AM 71.6 °F - 69.8 °F 94% 30.18 in 5.0 mi SSE 9.2 mph - N/A   Overcast
10:53 AM 73.9 °F - 69.1 °F 85% 30.18 in 6.0 mi SE 9.2 mph - N/A   Haze
11:18 AM 78.8 °F - 69.8 °F 74% 30.16 in 7.0 mi SE 11.5 mph - N/A   Overcast
11:53 AM 79.0 °F - 69.1 °F 72% 30.16 in 9.0 mi SE 10.4 mph - N/A   Scattered Clouds
12:04 PM 78.8 °F - 69.8 °F 74% 30.14 in 9.0 mi SSE 9.2 mph - N/A   Mostly Cloudy
12:38 PM 80.6 °F 83.9 °F 69.8 °F 70% 30.13 in 10.0 mi SSE 9.2 mph - N/A   Mostly Cloudy
12:53 PM 82.0 °F 85.5 °F 69.1 °F 65% 30.13 in 10.0 mi South 6.9 mph - N/A   Mostly Cloudy
1:53 PM 84.9 °F 87.6 °F 66.9 °F 55% 30.09 in 10.0 mi South 11.5 mph - N/A   Mostly Cloudy
3:53 PM 84.0 °F 85.8 °F 64.9 °F 53% 30.04 in 10.0 mi South 12.7 mph - N/A   Clear
4:53 PM 84.9 °F 86.6 °F 64.9 °F 51% 30.03 in 10.0 mi South 11.5 mph - N/A   Clear
5:53 PM 82.9 °F 85.0 °F 66.0 °F 56% 30.02 in 10.0 mi South 8.1 mph - N/A   Clear
7:53 PM 75.9 °F - 66.9 °F 74% 30.03 in 10.0 mi SSE 6.9 mph - N/A   Clear
9:53 PM 73.9 °F - 66.9 °F 79% 30.06 in 10.0 mi SSE 6.9 mph - N/A   Clear
10:53 PM 73.0 °F - 68.0 °F 84% 30.05 in 10.0 mi SSE 8.1 mph - N/A   Clear